Location: Unspecified
(0.0000°N, 0.0000°E)
Time: 20:39:13
(UTC+00:00)

Vanguard 2 - Visible Passes

Search period start: 20 February 2017 00:00
Search period end: 02 March 2017 00:00
Orbit: 553 x 2941 km, 32.9° (Epoch: 19 February)

Date Brightness Start Highest point End Pass type
(mag) Time Alt. Az. Time Alt. Az. Time Alt. Az.
20 Feb 10.1 18:32:29 10° NNW 18:43:11 28° NNE 18:50:24 10° ENE visible
20 Feb 9.2 20:44:13 10° NW 20:51:54 49° NW 20:51:54 49° NW visible
21 Feb 9.7 18:50:23 10° NW 19:02:15 37° NNE 19:08:16 17° E visible
21 Feb 9.5 21:02:52 10° WNW 21:09:45 42° WNW 21:09:45 42° WNW visible
22 Feb 9.3 19:08:27 10° NW 19:21:05 51° NNE 19:26:09 24° E visible
22 Feb 10.0 21:21:54 10° WNW 21:27:39 31° W 21:27:39 31° W visible
23 Feb 8.9 19:26:43 10° NW 19:39:42 71° NNE 19:44:05 32° ESE visible
23 Feb 10.5 21:41:29 10° W 21:45:35 21° WSW 21:45:35 21° WSW visible
24 Feb 8.9 19:45:15 10° WNW 19:58:05 84° SW 20:02:01 36° SE visible
24 Feb 10.9 22:01:52 10° WSW 22:03:31 13° WSW 22:03:31 13° WSW visible
25 Feb 9.3 20:04:07 10° WNW 20:16:17 59° SW 20:19:57 34° SSE visible
26 Feb 10.4 04:57:27 10° SSE 05:00:11 13° SE 05:03:25 10° ESE visible
26 Feb 9.7 20:23:25 10° WNW 20:34:22 41° SW 20:37:52 28° S visible
27 Feb 10.0 05:13:58 10° S 05:18:15 23° SE 05:24:10 10° E visible
27 Feb 9.5 18:27:11 10° NW 18:42:44 84° NE 18:52:05 10° ESE visible
27 Feb 10.1 20:43:15 10° W 20:52:26 28° SW 20:55:45 21° S visible
28 Feb 9.5 05:31:18 10° SSW 05:36:15 37° SE 05:43:49 10° ENE visible
28 Feb 9.7 18:45:53 10° WNW 19:01:05 74° SW 19:10:15 10° SE visible
28 Feb 10.5 21:03:51 10° W 21:10:36 18° SW 21:13:35 15° SSW visible
01 Mar 10.0 19:04:56 10° WNW 19:19:18 55° SW 19:28:09 10° SE visible
01 Mar 10.9 21:26:03 10° WSW 21:28:56 12° SW 21:31:21 10° SSW visible
